Language selection

Features

My Weather Profile Weather Topics  | 

Lake Winnipegosis: Past 24 Hour Conditions

 

Kuujjuarapik Airport

11:00 AM EST 10 December 2019
Disclaimer

This table is a summary of hourly weather conditions for the past 24 hours.
Please note that these observations might not always be representative of weather conditions over their associated marine area.

Date / Time
(EST)
Wind(knots) Conditions Visibility(km) Pressure(kPa) Air tempC) Relative humidity(%) Dew pointC) Wind Chill
10 December 2019
11:00 SE 6 Mostly Cloudy 16 99.9 -14 82 -17 -21
10:00 ESE 3 Light Snow 4 99.9 -15 85 -17 -19
9:00 SE 7 Light Snow 5 99.9 -16 84 -18 -24
8:00 SE 7 Light Snow 16 100.0 -17 82 -19 -24
7:00 ESE 8 Light Snow 16 100.0 -17 82 -19 -25
6:00 ESE 8 Light Snow 16 100.1 -17 82 -19 -25
5:00 ESE 8 Light Snow 13 100.1 -17 82 -19 -25
4:00 ESE 7 Cloudy 16 100.2 -17 81 -20 -25
3:00 ESE 9 Mostly Cloudy 16 100.3 -17 80 -20 -26
2:00 ESE 9 Cloudy 16 100.4 -17 81 -20 -26
1:00 ESE 10 Mainly Clear 16 100.5 -17 81 -20 -26
0:00 SE 9 Clear 16 100.6 -17 82 -19 -26
09 December 2019
23:00 SE 9 Clear 16 100.7 -17 81 -20 -26
22:00 SE 11 Clear 16 100.8 -17 82 -20 -27
21:00 SE 7 Clear 16 100.9 -18 82 -20 -25
20:00 SE 7 Clear 16 101.0 -18 81 -20 -25
19:00 SE 8 Clear 16 101.1 -18 81 -20 -26
18:00 SSE 6 Clear 16 101.2 -17 81 -20 -25
17:00 S 11 gust 16 Clear 16 101.2 -17 81 -19 -27
16:00 S 11 gust 16 Clear 16 101.3 -17 80 -20 -27
15:00 S 10 gust 15 Sunny 16 101.2 -16 77 -20 -25
14:00 S 13 gust 18 Light Snow 11 101.2 -16 77 -19 -26
13:00 S 14 gust 21 Light Snow 16 101.2 -16 77 -19 -27
12:00 SSW 16 gust 23 Light Snow 15 101.3 -16 75 -20 -27
11:00 SSW 13 gust 24 Light Snow 5 101.3 -16 76 -20 -27

Zoom-in to make a selection

Map of Hudson - Hudson Bay marine weather areas Arviat Airport Baker Lake Airport Chesterfield Inlet Airport Coral Harbour Airport Rankin Inlet Airport Sanikiluaq Airport Whale Cove Airport Cape Dorset Airport Iqaluit Airport Wager Bay Kimmirut Airport Churchill Airport Fort Severn Airport Peawanuck Airport Moosonee Airport Eastmain Airport La Grande Rivière Airport Waskaganish Airport Wemindji Airport Akulivik Airport Inukjuak Airport Ivujivik Airport Kuujjuarapik Airport Puvirnituq Airport Umiujaq Airport Aupaluk Airport Kangiqsujuaq Airport Kangirsuk Airport Kangiqsualujjuaq Airport Kuujjuaq Airport Quaqtaq Airport Salluit Airport Tasiujaq Airport Cape Kakkiviak
Legend:
buoy Buoy
land station Land Station

Hudson - Hudson Bay Area

Another Region

What we are doing

Date modified: